Regional Weather Roundup
Issued by NWS

Home | Current Version | Previous Version | Text Only | Print | Product List | Glossary On
Versions: 1 2 3 4 5 6 7 8 9 10 11 12 13 14 15 16 17 18 19 20 21 22 23 24 25 26 27 28 29 30 31 32 33 34 35 36 37 38 39 40 41 42 43 44 45 46 47 48 49 50
000
ASUS45 KPSR 111910
RWRAZ

ARIZONA HOURLY REGIONAL WEATHER ROUNDUP
NATIONAL WEATHER SERVICE PHOENIX AZ
1200 PM MST THU FEB 11 2016

NOTE: FAIR INDICATES FEW OR NO CLOUDS BELOW 12,000 FEET WITH NO
SIGNIFICANT WEATHER AND/OR OBSTRUCTIONS TO VISIBILITY.

AZZ001>003-036-112000-
NORTHWEST ARIZONA

CITY           SKY/WX    TMP DP  RH WIND       PRES   REMARKS
BULLHEAD CITY  SUNNY     72  28  20 N20G26    30.21F
KINGMAN        SUNNY     64  26  23 N9        30.28F
$$

AZZ004>008-015-016-018-112000-
NORTH CENTRAL ARIZONA

CITY           SKY/WX    TMP DP  RH WIND       PRES   REMARKS
GRAND CANYON   SUNNY     63   7  11 NE3       30.41S
WILLIAMS       SUNNY     63   1   8 CALM      30.44F
PRESCOTT       SUNNY     65  17  15 CALM      30.34F
FLAGSTAFF      SUNNY     55  12  18 CALM      30.41F
PAYSON         SUNNY     68  19  15 VRB6      30.33F
PAGE           SUNNY     46  32  58 N3        30.41F
$$

AZZ009>014-017-112000-
NORTHEAST ARIZONA

CITY           SKY/WX    TMP DP  RH WIND       PRES   REMARKS
WINSLOW        SUNNY     51  23  33 CALM      30.40F
SAINT JOHNS    SUNNY     54  18  24 VRB3      30.39F
WINDOW ROCK    SUNNY     56   0  10 CALM      30.40F
SHOW LOW       SUNNY     52  21  30 N9        30.42F
$$

AZZ023-112000-
GREATER PHOENIX AREA

CITY           SKY/WX    TMP DP  RH WIND       PRES   REMARKS
PHOENIX        SUNNY     77  28  16 VRB7      30.16F
BUCKEYE        SUNNY     73  32  21 SE7       30.19F
GLENDALE       SUNNY     72  34  25 CALM      30.19F
LUKE AFB       SUNNY     72  32  23 VRB1      30.16F
DEER VALLEY    SUNNY     71  30  21 VRB5      30.17F
SCOTTSDALE     SUNNY     72  31  22 VRB3      30.18F
MESA-FALCON    SUNNY    N/A N/A N/A CALM      30.18F
MESA-GATEWAY   SUNNY     72  30  21 CALM      30.19F
CHANDLER       SUNNY     70  32  24 VRB5      30.18F
$$

AZZ027-028-112000-
SOUTHWEST MARICOPA COUNTY AND PINAL COUNTY

CITY           SKY/WX    TMP DP  RH WIND       PRES   REMARKS
CASA GRANDE    SUNNY     72  30  21 SE5       30.18F
GILA BEND      SUNNY     73  33  23 N6        30.15F
$$

AZZ503-504-507>509-112000-
SOUTHEAST ARIZONA

CITY           SKY/WX    TMP DP  RH WIND       PRES   REMARKS
TUCSON         SUNNY     74  20  13 CALM      30.22F
DAVIS-MONTHAN  SUNNY     73  25  16 CALM      30.20F
RYAN FIELD     SUNNY     75  30  19 SE5       30.22F
NOGALES        SUNNY     75  15  10 W3        30.24F
SIERRA VISTA   SUNNY     73  13  10 E6        30.30F
DOUGLAS        SUNNY     70  17  13 VRB5      30.28F
SAFFORD        SUNNY     66  23  19 CALM      30.25F
$$

AZZ020-021-025-026-031-112000-
SOUTHWEST ARIZONA

CITY           SKY/WX    TMP DP  RH WIND       PRES   REMARKS
YUMA           SUNNY     79  31  17 N9        30.15S
$$

CAZ031-033-041-043-047-048-061-112000-
SOUTHERN CALIFORNIA

CITY           SKY/WX    TMP DP  RH WIND       PRES   REMARKS
DOWNTOWN L.A.  SUNNY     82  28  14 VRB5      30.11S
L.A. AIRPORT   MOSUNNY   75  40  28 W3        30.12S
SAN DIEGO      SUNNY     79  26  14 W6        30.12S
BURBANK        SUNNY     80  33  18 CALM      30.14S
ONTARIO        MOSUNNY   77  30  17 VRB3      30.14S
RIVERSIDE      SUNNY     80  30  16 VRB3      30.13F
PALM SPRINGS   SUNNY     79  25  13 E5        30.17F
EL CENTRO NAS  MOSUNNY   80  23  12 CALM      30.17S
IMPERIAL       SUNNY     79  28  15 CALM      30.15S
BLYTHE           N/A     73  32  22 MISG      30.18F
NEEDLES        SUNNY     71  29  21 N9        30.22F
$$

NVZ020-UTZ003-112000-
SOUTHERN NEVADA-UTAH

CITY           SKY/WX    TMP DP  RH WIND       PRES   REMARKS
LAS VEGAS      MOSUNNY   66  23  19 VRB3      30.24F
SALT LAKE CITY FOG       30  27  88 N9        30.48R VSB 1   WCI  22
$$

NMZ009-TXZ055-112000-
NEW MEXICO-WEST TEXAS

CITY           SKY/WX    TMP DP  RH WIND       PRES   REMARKS
ALBUQUERQUE    SUNNY     56  19  23 VRB3      30.35F
EL PASO        SUNNY     63  19  18 S5        30.26F
$$


........................KEY........................
SKY/WX - SKY CONDITION/WEATHER
TMP    - TEMPERATURE IN FAHRENHEIT
DP     - DEW POINT IN FAHRENHEIT
RH     - RELATIVE HUMIDITY IN PERCENT
WIND   - DIRECTION AND SPEED IN MILES PER HOUR (MPH)
VRB    - VARIABLE WIND DIRECTION
PRES   - MEAN SEA LEVEL PRESSURE IN INCHES OF MERCURY
         F - FALLING PRESSURE   R - RISING PRESSURE
         S - STEADY PRESSURE
VSB    - VISIBILITY IN MILES
HX     - HEAT INDEX IN FAHRENHEIT
WCI    - WIND CHILL INDEX IN FAHRENHEIT
TC     - TEMPERATURE IN CELSIUS WHICH IS ALSO KNOWN AS
         TEMPERATURE IN CENTIGRADE
AFB    - AIR FORCE BASE
         LUKE AFB IS LUKE AIR FORCE BASE
         DAVIS-MONTHAN IS DAVIS-MONTHAN AIR FORCE BASE
NAS    - NAVAL AIR STATION
         EL CENTRO NAS IS EL CENTRO NAVAL AIR STATION
N/A    - NOT AVAILABLE




USA.gov is the U.S. government's official web portal to all federal, state and local government web resources and services.